Время (UTC), дата Ветер
(°,м/с) 
Видим.   Явления Облачность Т
(°С)
Тd
(°С)
f(%) Тe
(°С)
Pmin
(гПа)
dP
(гПа)
Po
(мм)
O2
(г/м3)
Тmin Tmax R s Состояние
почвы
00 01.02.11 310 (СЗ) 2500 м  дымка  10/10 120 м 
[St]
-9.1 -9.9 94 -9  1020.2  0.8  722  302           
03 01.02.11 290 (З) 4000 м  слаб. снег  10/10 180 м 
[Ns]
-9 -9.9 93 -11  1020.3  -0.1  722  302        равномерный
сухой снег
100% 
06 01.02.11 290 (З) 4000 м  слаб. снег  8/5 330 м средняя, верхняя 
[Sc|Ac trans|Ci]
-8.9 -10 92 -12  1021.2  0.9  723  302  -10    0.0  равномерный
сухой снег
100% 
09 01.02.11 350 (С) >10 км  {снег}  8/8 480 м 
[Sc diur, vesp]
-6.7 -9.4 81 -10  1020.2  -0.6  722  299           
12 01.02.11 360 (С) 4000 м  слаб. снег{ливн. осадки}  10/8 480 м средняя 
[Sc|Ac und]
-6.6 -8.5 86 -9  1020.1  722  299           
15 01.02.11 310 (СЗ) >10 км  {снег}  8/6 500 м средняя 
[Sc|Ac trans]
-7.1 -9.9 81 -10  1020.3  0.1  722  300           
18 01.02.11 300 (СЗ) >10 км  {снег}  6/6 300 м 
[Sc]
-7.6 -9.2 88 -9  1020.6  0.1  722  300    -6.3  0.3     
21 01.02.11 240 (ЮЗ) >10 км  слаб. снег  10/8 600 м средняя 
[Sc|Ac und]
-7.7 -9.4 87 -9  1020.7  0.1  723  300           
00 02.02.11 290 (З) >10 км  {снег}  ясно 
-10 -11.7 87 -10  1021  -0.2  722  303           
03 02.02.11 270 (З) >10 км  слаб. снег  3/3 300 м 
[Sc]
-10.8 -11.6 94 -13  1021  -0.2  722  304           
06 02.02.11 240 (ЮЗ) >10 км  {снег}  6/0 средняя 
[Ac trans]
-7.6 -9.4 87 -10  1020.7  0.5  723  300  -11.6         
09 02.02.11 240 (ЮЗ) >10 км    6/3 300 м средняя 
[Sc|Ac trans]
-4.4 -9.7 66 -6  1019.6  -0.4  722  297           
12 02.02.11 280 (З) >10 км    8/8 600 м 
[Sc]
-4.3 -8.1 75 -7  1019.5  722  296           
15 02.02.11 310 (СЗ) >10 км    9/6 660 м средняя 
[Sc|Ac trans]
-5 -8.5 76 -5  1020  0.3  722  297           
18 02.02.11 200 (Ю) >10 км    8/4 600 м средняя 
[Sc|Ac trans]
-6.8 -8.9 85 -8  1021  0.6  723  300    -2.2       
21 02.02.11 180 (Ю) >10 км    6/3 630 м средняя 
[Sc|Ac trans]
-6.2 -8.2 86 -6  1021.2  0.3  723  299           
00 03.02.11 130 (ЮВ) >10 км  слаб. снег  9/6 600 м средняя 
[Sc|Ac trans]
-5.9 -7.1 91 -6  1021.1  723  298           
03 03.02.11 180 (Ю) >10 км  {снег}  10/6 800 м средняя 
[Sc|Ac As]
-4.6 -5.8 91 -6  1021.4  0.6  724  297           
06 03.02.11 210 (ЮЗ) >10 км  {снег}  9/5 600 м средняя 
[Sc|Ac trans]
-2.9 -5.3 84 -4  1022  0.9  724  295  -7.7        мокрый или
старый снег
10-40% 
09 03.02.11 020 (С) >10 км    10/5 1000 м средняя 
[Sc|Ac und]
-1 -4.6 76 1021.4  0.1  724  293           
12 03.02.11 150 (ЮВ) >10 км    8/5 600 м средняя 
[Sc|Ac trans]
+0.4 -4.8 68 +1  1020.6  -0.5  724  292           
15 03.02.11 080 (В) >10 км    3/0 верхняя 
[Ci fib]
-3.2 -4.9 88 -5  1021.5  0.2  724  296           
18 03.02.11 210 (ЮЗ) >10 км    ясно 
-5.2 -6.7 89 -7  1021.7  -0.3  724  298    +1.5       
21 03.02.11 220 (ЮЗ) >10 км    3/0 средняя 
[Ac trans]
-4.3 -6.6 84 -7  1021.5  724  297           
00 04.02.11 180 (Ю) >10 км    8/0 средняя 
[Ac trans]
-2.5 -4.9 84 -4  1020.4  -0.7  723  295           
03 04.02.11 200 (Ю) >10 км    10/0 средняя 
[Ac und]
-1.9 -3.9 86 -3  1019.4  -0.7  723  294           
06 04.02.11 170 (Ю) 10 км  слаб. снег  10/8 630 м средняя 
[Sc|Ac und]
-1 -1.9 93 -2  1019.5  0.3  723  292  -5.7      <0.5  мокрый или
старый снег
10-40% 
09 04.02.11 180 (Ю) >10 км  в посл. час снег  8/4 600 м средняя 
[Sc|Ac trans]
+2.1 -1.1 79 +1  1018.8  723  289           
12 04.02.11 320 (СЗ) 10 км  {снег}  10/8 480 м средняя 
[Sc|Ac und]
+2.8 -0.6 78 +1  1018.9  0.2  723  288           
15 04.02.11 270 (З) 1300 м  снег  10/10 120 м 
[Ns]
-0.3 -0.6 98 -3  1020.2  0.7  723  292           
18 04.02.11 270 (З) 1600 м  дымка{снег}  10/10 50 м 
[St]
-3 -3.3 98 -7  1021.5  0.6  724  295    +4.4       
21 04.02.11 280 (З) 0700 м  переохл. туман  ?/?  
-3.9 -4.2 98 -8  1021.8  0.2  724  296           
00 05.02.11 280 (З) 2500 м  дымка{туман}  10/10 100 м 
[St]
-4.8 -5.2 97 -10  1021.5  0.2  724  297           
03 05.02.11 270 (З) 2500 м  дымка{снег}  10/10 150 м 
[St]
-3.9 -4.3 97 -8  1020.4  -0.9  723  296        равномерный
сухой снег
100% 
06 05.02.11 280 (З) 0400 м  переохл. туман{снег}  ?/?  
-2.2 -2.4 98 -5  1020.2  0.2  723  294  -4.9    0.6  равномерный
сухой снег
100% 
09 05.02.11 270 (З) 4000 м  дымка{снег, туман}  10/10 180 м 
[Ns]
-0.6 -0.8 98 -4  1018  -1.7  722  291           
12 05.02.11 260 (З) 10 км  {снег, туман}  10/8 240 м средняя 
[St|Ac und]
-0.3 -0.8 96 -5  1015.3  -2.5  720  290           
15 05.02.11 210 (ЮЗ) >10 км    10/3 300 м средняя 
[Sc|Ac und]
+0.8 -1.2 86 -3  1011.6  -3.2  717  288           
18 05.02.11 260 (З) 17-25{25}  10 км  слаб. ливневой дождь со снегом  10/6 600 м кучево-дожд., средняя 
[Cb cap|Ac und]
+2.3 -0.5 82 -3  1007.1  -3.9  714  285      0.3     
21 05.02.11 270 (З) 17-24{28}  >10 км  слаб. ливневой дождь  10/6 600 м кучево-дожд., средняя 
[Cb cap|Ac und]
+1.8 +0.1 88 -4  1006.2  -0.9  714  286           
00 06.02.11 270 (З) 17-26{27}  >10 км  {ливн. осадки}  10/5 300 м кучево-дожд., средняя 
[Cb cap|Ac und]
+2.4 -0.3 82 -3  1004.6  -1.4  713  285           
03 06.02.11 260 (З) 17-23{26}  >10 км  слаб. ливневой дождь  6/4 300 м кучево-дожд., средняя 
[Cb cap|Ac trans]
+2.2 +0.4 88 -4  1003.8  -0.7  712  284           
06 06.02.11 260 (З) 16-25{27}  >10 км  слаб. ливневой дождь  10/6 480 м кучево-дожд., средняя 
[Cb cap|Ac und]
+3.3 +0.9 84 -2  1002.7  -0.8  712  283  +0.8    0.0     
09 06.02.11 270 (З) 16-24{29}  >10 км  слаб. ливневой дождь  10/8 300 м кучево-дожд., средняя 
[Cb cap|Ac und]
+3.4 +1.9 90 -2  1001.9  -0.8  711  283           
12 06.02.11 270 (З) 15-23{28}  4000 м  ливневой дождь  10/8 300 м кучево-дожд., средняя 
[Cb cap|Ac und]
+1.9 +1.2 95 -4  1003.6  1.3  712  285           
15 06.02.11 280 (З) 12-18{23}  >10 км  слаб. ливневой дождь  10/8 300 м кучево-дожд., средняя 
[Cb cap|Ac und]
+2.6 +1.1 90 -2  1005.6  713  284           
18 06.02.11 280 (З) 12{18}  >10 км  {ливн. осадки}  10/8 300 м кучево-дожд., средняя 
[Cb calv|Ac As]
+1.7 +0 89 -3  1006.8  714  286         
21 06.02.11 280 (З) 10-15{19}  4000 м  слаб. ливневой снег  10/8 300 м кучево-дожд., средняя 
[Cb cap|Ac und]
+0.8 -0.9 88 -4  1007.7  0.6  715  287           
00 07.02.11 280 (З) 10  >10 км  {ливн. осадки}  10/8 450 м кучево-дожд., средняя 
[Cb calv|Ac und]
+0 -2.3 84 -5  1009.8  1.9  716  289           
03 07.02.11 270 (З) 11{19}  >10 км  {ливн. осадки}  6/3 600 м кучево-дожд., средняя 
[Cb calv|Ac trans]
-1.3 -3.2 87 -7  1012.5  2.2  718  291           
06 07.02.11 270 (З) >10 км  {ливн. осадки}  8/8 330 м кучево-дожд. 
[Cb calv]
-1.3 -2.9 89 -6  1014.8  2.2  719  292  -1.4    0.3    равномерный
мокрый или
старый снег
100% 
09 07.02.11 280 (З) 10  >10 км    8/8 400 м 
[Sc diur, vesp]
+0.2 -2.9 80 -5  1015.6  720  290           
12 07.02.11 280 (З) 10  >10 км    8/8 700 м 
[Sc diur, vesp]
+1 -3.8 70 -4  1016  0.5  721  290           
15 07.02.11 280 (З) >10 км    8/8 600 м 
[Sc]
-0.2 -3.7 77 -4  1017.3  721  291           
18 07.02.11 270 (З) >10 км    9/9 900 м 
[Sc]
-0.3 -3.3 80 -5  1018  0.6  722  291    +1.8       
21 07.02.11 280 (З) >10 км    4/0 средняя 
[Ac trans]
-1.4 -3.5 86 -4  1018.3  722  293           
00 08.02.11 270 (З) >10 км    4/0 средняя 
[Ac trans]
-1.4 -3.5 86 -5  1017.7  -0.5  721  293           
03 08.02.11 260 (З) >10 км    9/0 средняя 
[Ac und]
-0.3 -3 82 -3  1017  -0.5  721  291           
06 08.02.11 220 (ЮЗ) 1500 м  ливневой снег  10/8 330 м кучево-дожд., средняя 
[Cb cap|Ac und]
-0.5 -0.9 97 -1  1018.1  722  291  -1.7         
09 08.02.11 270 (З) >10 км  в посл. час ливневой снег  9/8 330 м кучево-дожд., средняя 
[Cb calv|Ac trans]
+1.7 +0.5 92 -1  1017.7  0.1  722  289           
12 08.02.11 300 (СЗ) >10 км  {ливн. осадки}  10/8 150 м кучево-дожд., средняя 
[Cb calv|Ac und]
+1 +0.1 94 -2  1017.2  -0.6  721  290           
15 08.02.11 280 (З) 4000 м  слаб. ливневой дождь{туман}  10/8 120 м кучево-дожд., средняя 
[Cb cap|Ac und]
+0.1 -0.4 96 -2  1017.6  0.2  722  291           
18 08.02.11 250 (З) 2000 м  слаб. ливневой дождь{туман}  10/8 120 м кучево-дожд., средняя 
[Cb cap|Ac und]
+0.7 +0.5 99 -2  1019.6  -0.6  721  290    +1.9  0.6     
21 08.02.11 270 (З) >10 км  {ливн. осадки}  8/5 300 м кучево-дожд., средняя 
[Cb calv|Ac trans]
+1.5 +0.5 93 -2  1014.5  -2.1  720  288           
00 09.02.11 260 (З) >10 км  {ливн. осадки}  10/8 480 м кучево-дожд., средняя 
[Cb calv|Ac und]
+2.9 +1.7 92 1011.5  -2.6  718  286           
03 09.02.11 200 (Ю) >10 км    3/3 300 м 
[Sc diur, vesp]
+0.9 +0.4 96 -1  1009.4  -2.3  716  287           
06 09.02.11 160 (Ю) >10 км    8/4 600 м средняя 
[Sc|Ac trans]
+1.9 -0.2 86 1006.6  -2.5  714  286  +0.6         
09 09.02.11 270 (З) 11{19}  >10 км    8/4 600 м кучево-дожд., средняя 
[Cb calv|Ac trans]
+7.7 +1.2 63 +4  1002.7  -2.5  712  279           
12 09.02.11 320 (СЗ) 1200 м  ливневой снег  10/8 100 м кучево-дожд., средняя 
[Cb cap|Ac und]
+0.2 -0.2 97 -4  1004.3  -0.1  712  287           
15 09.02.11 280 (З) 10 км  в посл. час ливневой снег  8/6 300 м кучево-дожд., средняя 
[Cb calv|Ac trans]
-0.1 -0.3 99 -5  1005.5  -0.1  713  287           
18 09.02.11 270 (З) >10 км  {ливн. осадки}  10/4 300 м кучево-дожд., средняя 
[Cb cap|Ac und]
-0.4 -2.5 86 -4  1007.9  2.1  715  289    +8.9     
21 09.02.11 250 (З) >10 км  слаб. ливневой снег  10/5 600 м кучево-дожд., средняя 
[Cb calv|Ac und]
-0.9 -3.3 84 -6  1008  715  289           
00 10.02.11 260 (З) 10  4000 м  слаб. ливневой снег  8/5 300 м кучево-дожд., средняя 
[Cb cap|Ac trans]
-1.1 -3.1 86 -6  1008  715  289           
03 10.02.11 260 (З) 2000 м  слаб. ливневой снег  10/6 100 м кучево-дожд., средняя 
[Cb cap|Ac und]
-1.4 -2.2 94 -6  1008.3  0.2  715  290           
06 10.02.11 270 (З) 10  4000 м  слаб. ливневой снег  10/6 120 м кучево-дожд., средняя 
[Cb cap|Ac und]
-1.2 -2.2 93 -6  1008.5  0.3  715  289  -1.6    0.0     
09 10.02.11 270 (З) 10 км  слаб. ливневой снег  10/6 360 м кучево-дожд., средняя 
[Cb calv|Ac As]
-1.1 -3.5 84 -6  1009  0.5  715  290           
12 10.02.11 280 (З) >10 км  в посл. час ливневой снег  8/5 360 м кучево-дожд., средняя 
[Cb calv|Ac trans]
-0.4 -4 77 -5  1007.8  -1  715  289           
15 10.02.11 280 (З) 10  >10 км  слаб. ливневой снег  10/8 150 м кучево-дожд., средняя 
[Cb calv|Ac As]
-2.7 -3.3 96 -8  1009.2  0.9  715  291           
18 10.02.11 280 (З) >10 км  {ливн. осадки}  10/8 330 м кучево-дожд., средняя 
[Cb calv|Ac und]
-3.3 -4.6 91 -8  1011.8  2.3  717  293    +0.3  0.7     
21 10.02.11 290 (З) >10 км  в посл. час ливневой снег  10/6 330 м кучево-дожд., средняя 
[Cb calv|Ac As]
-3.8 -5.3 89 -8  1012.9  0.9  718  294           
00 11.02.11 310 (СЗ) 4000 м  слаб. ливневой снег  10/8 300 м кучево-дожд., средняя 
[Cb cap|Ac und]
-4.3 -5.5 91 -9  1014  1.4  718  295           
03 11.02.11 300 (СЗ) 4000 м  слаб. ливневой снег  10/8 400 м кучево-дожд., средняя 
[Cb cap|Ac und]
-5.2 -6.4 91 -9  1015.5  1.4  719  296           
06 11.02.11 300 (СЗ) 1200 м  ливневой снег  10/8 300 м кучево-дожд., средняя 
[Cb cap|Ac und]
-5.8 -6.7 93 -10  1017.6  1.8  721  297  -5.8    0.7  неравномерный
сухой снег
100% 
09 11.02.11 290 (З) 10 км  слаб. ливневой снег  9/9 500 м 
[Sc diur, vesp]
-5.7 -8.5 81 -10  1019  1.3  722  298           
12 11.02.11 290 (З) >10 км  {ливн. осадки}  6/6 600 м 
[Sc]
-5.2 -8.6 77 -10  1019.3  0.5  722  297           
15 11.02.11 280 (З) >10 км    6/6 570 м кучево-дожд. 
[Cb calv]
-7 -8.3 90 -11  1020.3  0.5  722  299           
18 11.02.11 250 (З) >10 км  {ливн. осадки}  8/8 800 м кучево-дожд. 
[Cb calv]
-7.6 -8.9 90 -9  1020.7  0.2  723  300    -4.7  0.4     
21 11.02.11 210 (ЮЗ) >10 км    8/8 1000 м кучево-дожд. 
[Cb calv]
-8.8 -10 91 -10  1019.8  -1.1  722  301           
00 12.02.11 170 (Ю) >10 км    9/4 1000 м кучево-дожд., средняя 
[Cb calv|Ac trans]
-7.5 -9.2 88 -10  1017.6  -1.8  720  299           
03 12.02.11 180 (Ю) >10 км    8/4 600 м средняя 
[Sc diur, vesp|Ac trans]
-6.6 -8.9 84 -9  1014.9  -2.4  719  298        равномерный
сухой снег
100% 
06 12.02.11 150 (ЮВ) >10 км    10/0 средняя, верхняя 
[Ac trans|Ci fib]
-4.6 -8.2 76 -8  1012.2  -2.1  717  295  -8.8      неравномерный
сухой снег
100% 
09 12.02.11 160 (Ю) >10 км    10/3 1000 м кучево-дожд., средняя 
[Cb cap|Ac und]
-1.1 -5.8 70 -5  1009.3  -2.1  716  290           
12 12.02.11 130 (ЮВ) >10 км    10/3 600 м кучево-дожд., средняя 
[Cb calv|Ac und]
-0.2 -5.4 68 -4  1005.9  -3  713  288           
15 12.02.11 150 (ЮВ) 10 км  слаб. ливневой снег  10/8 480 м кучево-дожд., средняя 
[Cb cap|Ac und]
-1 -4.9 75 -4  1004.6  -1.3  712  288           
18 12.02.11 130 (ЮВ) 10 км  слаб. ливневой снег  10/8 600 м кучево-дожд., средняя 
[Cb cap|Ac und]
-2.1 -4.3 85 -6  1001.7  -3  710  289    +0.4       
21 12.02.11 170 (Ю) >10 км  {ливн. осадки}  10/4 1000 м кучево-дожд., средняя 
[Cb calv|Ac und]
-1.3 -5.1 75 -3  998  -3.3  707  287           
00 13.02.11 280 (З) 10  2000 м  слаб. ливневой снег  10/10 100 м 
[]
-0.7 -1.3 96 -6  999.6  1.6  709  286           
03 13.02.11 280 (З) 11  1800 м  ливневой снег  10/8 100 м кучево-дожд., средняя 
[Cb cap|Ac und]
-2.1 -3.6 89 -8  999.9  709  288        равномерный
сухой снег
100% 
06 13.02.11 280 (З) 12{22}  0500 м  ливневой снег  ?/?  
-5.7 -7.2 89 -13  1004.1  3.2  711  293      0.9  равномерный
сухой снег
100% 
09 13.02.11 280 (З) 18{27}  0600 м  сильная метель{ливн. осадки}  4/4 300 м кучево-дожд. 
[Cb cap]
-5.9 -10 73 -14  1005.6  1.3  712  294           
12 13.02.11 280 (З) 11-18{27}  0600 м  ливневой снег  ?/?  
-6.7 -8.1 90 -14  1007.6  1.8  713  295           
15 13.02.11 280 (З) 13-19{25}  10 км  позёмок{ливн. осадки}  3/3 300 м кучево-дожд. 
[Cb cap]
-7.2 -10.4 78 -15  1010.3  2.4  715  297           
18 13.02.11 280 (З) 10{20}  >10 км  позёмок{ливн. осадки}  6/3 600 м кучево-дожд., средняя 
[Cb calv|Ac trans]
-7.3 -11 75 -14  1011.7  1.3  716  297      0.5     
21 13.02.11 280 (З) 11{19}  >10 км  позёмок{ливн. осадки}  6/3 600 м кучево-дожд., средняя 
[Cb cap|Ac trans]
-7.6 -10.4 80 -15  1011.4  -0.3  716  298           
00 14.02.11 280 (З) 12{20}  >10 км  позёмок{ливн. осадки}  6/3 300 м кучево-дожд., средняя 
[Cb cap|Ac und]
-8.3 -11 81 -16  1012.2  0.6  716  299           
03 14.02.11 280 (З) >10 км  позёмок  5/3 600 м кучево-дожд., средняя 
[Cb calv|Ac trans]
-9.4 -11.9 82 -16  1013.1  0.6  717  300        очень
неравномерный
сухой снег
(сугробы, заносы) 
06 14.02.11 270 (З) >10 км  позёмок  5/4 300 м кучево-дожд., средняя 
[Cb calv|Ac As]
-7.8 -11 78 -14  1013.1  0.3  717  298  -9.4      очень
неравномерный
сухой снег
(сугробы, заносы) 
09 14.02.11 100 (В) 65  >10 км  позёмок{ливн. осадки}  4/4 300 м кучево-дожд., средняя 
[Cb calv|Ac As]
-10.9   1011.9  -0.9  716             
12 14.02.11 280 (З) 10  >10 км  позёмок{ливн. осадки}  5/3 600 м кучево-дожд., средняя 
[Cb calv|Ac As]
-5.7 -12.7 58 -12  1010.6  -1  716  296           
15 14.02.11 280 (З) 7{18}  >10 км  позёмок  4/3 1000 м кучево-дожд., средняя 
[Cb calv|Ac As]
-6.6 -8.9 84 -12  1010.2  -0.5  715  296           
18 14.02.11 280 (З) 3000 м  слаб. ливневой снег  10/8 180 м кучево-дожд., средняя 
[Cb cap|Ac und]
-9.3   1011.3  0.7  716      -5.4  0.0     
21 14.02.11 290 (З) 2000 м  слаб. ливневой снег  10/8 200 м кучево-дожд., средняя 
[Cb cap|Ac und]
-9.9 -11.2 90 -14  1011.9  0.1  716  300           
00 15.02.11 260 (З) >10 км  {ливн. осадки}  4/3 300 м кучево-дожд., средняя 
[Cb calv|Ac As]
-10.5 -12.5 85 -17  1011.9  0.1  716  301           
03 15.02.11 270 (З) >10 км  слаб. ливневой снег  5/3 480 м кучево-дожд., средняя 
[Cb calv|Ac trans]
-11.9 -13.5 88 -17  1012.4  0.2  716  303        очень
неравномерный
сухой снег
(сугробы, заносы) 
06 15.02.11 280 (З) 4000 м  слаб. ливневой снег  8/5 300 м кучево-дожд., средняя 
[Cb calv|Ac trans]
-11.5 -13.6 84 -17  1013.2  0.8  717  303  -12      очень
неравномерный
сухой снег
(сугробы, заносы) 
09 15.02.11 280 (З) >10 км  {ливн. осадки}  6/5 480 м средняя 
[Sc diur, vesp|Ac trans]
-10 -12.9 79 -15  1012.6  -0.2  716  301           
12 15.02.11 280 (З) >10 км  {ливн. осадки}  8/5 600 м средняя 
[Sc|Ac trans]
-10.1 -13.3 77 -15  1012.2  -0.4  716  301           
15 15.02.11 270 (З) >10 км    4/3 600 м средняя 
[Sc|Ac trans]
-12.6 -14.3 87 -15  1013.9  717  304           
18 15.02.11 260 (З) 10 км  слаб. снег  5/4 300 м средняя 
[Sc|Ac trans]
-13.6 -15 89 -17  1015.6  1.4  718  306    -9.7  0.0     
21 15.02.11 290 (З) 10 км  слаб. снег  8/6 420 м средняя 
[Sc|Ac trans]
-12.6 -14.6 85 -15  1016.1  0.7  719  305           
00 16.02.11 280 (З) >10 км  {снег}  8/6 420 м средняя 
[Sc|Ac trans]
-13.9 -15.4 89 -16  1016.7  0.3  719  306           
03 16.02.11 250 (З) 10 км    4/3 300 м средняя 
[Sc|Ac trans]
-14 -15.3 89 -16  1017.5  0.8  719  307           
06 16.02.11 270 (З) 10 км  в посл. час снег  6/1 300 м средняя 
[Sc|Ac trans]
-12.4 -14.8 82 -17  1018.7  1.4  720  305  -16.9      неравномерный
сухой снег
100% 
09 16.02.11 270 (З) 4000 м  слаб. снег  10/6 480 м средняя 
[Sc|Ac und]
-10.8 -14 77 -16  1019.2  0.8  721  304           
12 16.02.11 290 (З) 10 км  {снег}  8/3 300 м средняя 
[Sc|Ac trans]
-10 -13.2 78 -15  1019.8  0.8  722  303           
15 16.02.11 280 (З) 4000 м  слаб. ливневой снег  9/6 300 м кучево-дожд., средняя 
[Cb cap|Ac trans]
-11.3 -13.1 86 -15  1022.4  2.2  723  305           
18 16.02.11 280 (З) 4000 м  слаб. ливневой снег  10/5 300 м кучево-дожд., средняя 
[Cb cap|Ac und]
-12 -14 85 -16  1024.3  1.6  724  307    -9.8       
21 16.02.11 290 (З) 10 км  слаб. ливневой снег  10/6 420 м кучево-дожд., средняя 
[Cb cap|Ac und]
-13.5 -15.8 83 -17  1025  0.2  725  308           
00 17.02.11 270 (З) >10 км  {ливн. осадки}  10/8 360 м кучево-дожд., средняя 
[Cb calv|Ac und]
-15.1 -16.9 86 -19  1025.7  0.4  725  311           
03 17.02.11 260 (З) >10 км    3/3 300 м 
[Sc]
-15.9 -17.2 90 -18  1026.1  0.2          неравномерный
сухой снег
100% 
06 17.02.11 240 (ЮЗ) >10 км    3/0 средняя 
[Ac trans]
-14.6 -16.4 86 -17  1026.1  0.3  725  310  -17.4    0.2  неравномерный
сухой снег
100% 
09 17.02.11 320 (СЗ) >10 км    3/0 верхняя 
[Ci]
-9.2 -14.6 65 -11  1024.9  0.1  725  304           
12 17.02.11 320 (СЗ) >10 км    4/0 верхняя 
[Ci]
-9.1 -15.1 62 -12  1024.5  -0.3  725  303           
15 17.02.11 300 (СЗ) >10 км    3/0 верхняя 
[Ci fib]
-11.6 -19.1 54 -15  1026  -0.3  726  307           
18 17.02.11 250 (З) >10 км    ясно 
-15.9 -18.7 79 -20  1027.7  0.7  726  312    -9.1       
21 17.02.11 300 (СЗ) >10 км    ясно 
-13 -15.4 82 -15  1027.1  0.1  726  309           
00 18.02.11 310 (СЗ) >10 км    ясно 
-13.3 -16.1 79 -17  1027.1  0.1  726  309           
03 18.02.11 240 (ЮЗ) >10 км    ясно 
-17.2 -18.6 89 -17  1028.5  0.5  727  314        неравномерный
сухой снег
100% 
06 18.02.11 тихо ()   >10 км    н/о 
-11.8 -14.9 78 -12  1027.5  0.2  727  307  -17.6      равномерный
сухой снег
100% 
09 18.02.11 020 (С) >10 км    ясно 
-8.3 -15 58 -8  1026.6  0.1  727  303           
12 18.02.11 010 (С) >10 км    ясно 
-8.2 -14.8 59 -11  1026.3  -0.3  726  303           
15 18.02.11 040 (СВ) >10 км    5/0 средняя 
[Ac trans]
-11.3 -14.3 79 -13  1027.1  0.2  727  307           
18 18.02.11 080 (В) >10 км    6/0 средняя 
[Ac trans]
-13.6 -15.3 87 -17  1027.5  -0.2  726  309    -6.7       
21 18.02.11 080 (В) >10 км    3/0 средняя 
[Ac trans]
-15.8 -17.1 89 -20  1027  -0.9  726  312           
00 19.02.11 110 (В) >10 км    3/0 средняя 
[Ac trans]
-16.4 -17.7 90 -20  1026.2  -0.9  725  312           
03 19.02.11 130 (ЮВ) >10 км    ясно 
-14.5 -16.4 85 -20  1024.3  -1.3  724  309           
06 19.02.11 120 (ЮВ) >10 км    3/0 средняя 
[Ac As]
-11.9 -14.7 80 -16  1023.2  -0.5  724  306  -16.5      неравномерный
сухой снег
100% 
09 19.02.11 120 (ЮВ) >10 км    3/0 средняя 
[Ac As]
-5.9 -10.6 69 -10  1020.2  -1.5  722  298           
12 19.02.11 100 (В) >10 км    6/0 средняя 
[Ac trans]
-4.1 -8.9 69 -9  1018.2  -1.5  721  296           
15 19.02.11 100 (В) >10 км    10/0 средняя 
[Ac und]
-6.3 -10 75 -11  1018.5  -0.2  721  298           
18 19.02.11 090 (В) >10 км    8/0 средняя 
[Ac trans]
-8.7 -12 77 -15  1017.9  -1.1  720  301    -4       
21 19.02.11 100 (В) >10 км    10/4 300 м средняя 
[Sc|Ac und]
-8.8 -11.1 83 -14  1016.2  -1.6  719  300           
00 20.02.11 100 (В) 4000 м  дымка  10/10 100 м 
[St]
-7.9 -8.4 96 -14  1014.5  -1.4  718  299           
03 20.02.11 090 (В) 0600 м  переохл. туман  ?/?  
-8.6 -9.4 94 -15  1014.1  -0.6  718  299           
06 20.02.11 090 (В) 0900 м  переохл. туман  ?/?  
-8.5 -9.4 93 -15  1014.6  0.5  718  300  -9.6      неравномерный
сухой снег
100% 
09 20.02.11 090 (В) 3000 м  дымка{туман}  10/10 210 м 
[]
-7.5 -8.2 95 -14  1014.1  -0.3  718  298           
12 20.02.11 080 (В) 2000 м  дымка{туман}  10/10 100 м 
[St]
-6.6 -7.3 95 -12  1014  -0.1  718  297           
15 20.02.11 080 (В) 1100 м  позёмок{снег}  10/10 50 м 
[St]
-7.4 -8.1 95 -14  1015.5  1.3  719  299           
18 20.02.11 090 (В) 10 км  позёмок{снег}  10/10 150 м 
[St]
-7.7 -8.4 95 -14  1017.1  1.5  720  299    -6.5       
21 20.02.11 090 (В) 10  10 км  позёмок{снег}  10/10 360 м 
[Sc]
-9 -9.9 93 -16  1018.1  0.6  721  301           
00 21.02.11 100 (В) 10  10 км  позёмок  10/10 360 м 
[Sc]
-9.4 -10.4 92 -17  1018.7  0.5  721  302           
03 21.02.11 100 (В) 10 км  позёмок  10/10 100 м 
[St]
-9.6 -10.5 93 -16  1019.3  0.5  721  302        неравномерный
сухой снег
100% 
06 21.02.11 090 (В) 10 км  позёмок  10/6 150 м средняя 
[St|As op]
-9.5 -10.4 93 -16  1020.4  722  302  -9.8    0.0  неравномерный
сухой снег
100% 
09 21.02.11 080 (В) 10 км  позёмок  10/5 400 м средняя 
[Sc|As op]
-7.5 -8.6 92 -14  1021.1  1.1  723  300           
12 21.02.11 090 (В) 10  4000 м  метель  8/5 300 м средняя 
[Sc|Ac trans]
-7 -8.3 90 -14  1021.7  0.8  723  300           
15 21.02.11 090 (В) 10 км  позёмок  10/5 300 м средняя 
[Sc|Ac und]
-7.7 -8.8 92 -14  1024  1.9  725  301           
18 21.02.11 100 (В) >10 км  позёмок  10/6 330 м средняя 
[Sc|Ac und]
-8 -8.9 93 -14  1025.9  1.8  726  302    -6.3       
21 21.02.11 110 (В) 10 км  позёмок  10/5 400 м средняя 
[Sc|Ac und]
-8.3 -10.1 87 -15  1026.5  1.8  727  303           
00 22.02.11 110 (В) >10 км  позёмок  10/5 480 м средняя 
[Sc|Ac und]
-9.2 -11.1 86 -16  1027.2  0.5  727  304           
03 22.02.11 100 (В) >10 км  позёмок  10/4 300 м средняя 
[Sc|Ac und]
-11.1 -12.5 89 -18  1028.7  728  307        очень
неравномерный
сухой снег
(сугробы, заносы) 
06 22.02.11 110 (В) >10 км  позёмок  10/5 300 м средняя 
[Sc diur, vesp|Ac As]
-11.2 -12.4 91 -18  1029.5  0.8  728  307  -11.8      10  очень
неравномерный
сухой снег
(сугробы, заносы) 
09 22.02.11 110 (В) 10  10 км  позёмок  10/5 300 м средняя 
[Sc|Ac und]
-8.2 -10 87 -15  1028.1  -0.6  728  303           
12 22.02.11 110 (В) 11  10 км  позёмок  10/4 300 м средняя 
[Sc|Ac und]
-8.1 -9.8 88 -15  1027.7  -0.3  727  303           
15 22.02.11 110 (В) 11  >10 км  метель  10/8 480 м средняя 
[Sc|Ac und]
-9 -10.4 89 -16  1028.5  0.5  728  304           
18 22.02.11 120 (ЮВ) 12  2000 м  метель  10/6 400 м средняя 
[Sc diur, vesp|Ac As]
-8.8 -10 91 -16  1028.4  728  304    -7.8       
21 22.02.11 110 (В) 10  2000 м  метель  10/6 360 м средняя 
[Sc|Ac und]
-9.9 -11.1 91 -17  1028.4  -0.3  728  305           
00 23.02.11 110 (В) 11  10 км  позёмок  10/6 450 м средняя 
[Sc|Ac und]
-10.3 -11.4 91 -18  1028.2  -0.3  727  306           
03 23.02.11 110 (В) 10  10 км  позёмок  10/6 360 м средняя 
[Sc|Ac und]
-10.3 -11.4 91 -18  1028.7  -0.2  728  306        очень
неравномерный
сухой снег
(сугробы, заносы) 
06 23.02.11 110 (В) 10  10 км  позёмок  10/6 330 м средняя 
[Sc|Ac und]
-9.6 -10.8 91 -17  1029.4  0.8  728  305  -10.5      очень
неравномерный
сухой снег
(сугробы, заносы) 
09 23.02.11 130 (ЮВ) 14{18}  4000 м  метель  10/6 300 м средняя 
[Sc|Ac und]
-6.2 -7.6 90 -14  1028.4  -0.3  728  301           
12 23.02.11 120 (ЮВ) 11{19}  4000 м  метель  10/6 300 м средняя 
[Sc|Ac und]
-6.1 -7.1 93 -13  1028.5  0.2  728  301           
15 23.02.11 120 (ЮВ) 12  4000 м  метель  10/6 360 м средняя 
[Sc|Ac und]
-5.3 -6 95 -12  1028.7  0.4  729  300           
18 23.02.11 120 (ЮВ) 11  10 км  позёмок  10/10 210 м 
[St]
-6.1 -6.9 94 -13  1029  0.1  729  301    -5.3       
21 23.02.11 120 (ЮВ) 10  10 км  позёмок  10/10 240 м 
[St]
-6.9 -7.7 94 -13  1028.3  -0.9  728  302           
00 24.02.11 120 (ЮВ) 10  10 км  позёмок  10/10 270 м 
[St]
-7.2 -8 94 -14  1027.9  -0.4  728  302           
03 24.02.11 120 (ЮВ) 12  10 км  позёмок  10/10 240 м 
[St]
-6.9 -7.7 94 -14  1027.5  -0.3  728  301        26  очень
неравномерный
сухой снег
(сугробы, заносы) 
06 24.02.11 110 (В) 11  10 км  позёмок  10/10 300 м 
[Sc]
-6.1 -7.1 93 -13  1028.1  0.7  728  301  -7.2      26  очень
неравномерный
сухой снег
(сугробы, заносы) 
09 24.02.11 120 (ЮВ) 13{19}  10 км  позёмок  10/8 300 м средняя 
[Sc|Ac und]
-4.9 -6.1 91 -12  1028  0.2  728  299           
12 24.02.11 110 (В) 14{19}  10 км  позёмок  10/8 300 м средняя 
[Sc|Ac und]
-4.1 -5.1 93 -11  1027.8  728  298           
15 24.02.11 110 (В) 13{20}  2000 м  метель  10/10 200 м 
[St]
-4.2 -4.9 95 -11  1027.9  728  298           
18 24.02.11 120 (ЮВ) 13{20}  3000 м  метель  10/10 200 м 
[St]
-5.5 -6.3 94 -13  1028.5  0.3  728  300           
21 24.02.11 110 (В) 13  10 км  позёмок  10/10 180 м 
[St]
-6.7 -7.5 94 -14  1028.1  -0.5  728  301           
00 25.02.11 110 (В) 14{18}  10 км  позёмок  10/10 200 м 
[St]
-7 -8 93 -15  1027.6  -0.6  728  302           
03 25.02.11 110 (В) 13{19}  10 км  позёмок  10/10 210 м 
[St]
-7 -7.9 93 -14  1028.1  0.4  728  302           
06 25.02.11 110 (В) 14{20}  1500 м  метель  10/10 210 м 
[St]
-6.6 -7.4 94 -14  1027.8  -0.2  728  301  -7.1      20  очень
неравномерный
сухой снег
(сугробы, заносы) 
09 25.02.11 100 (В) 10-19{20}  2000 м  метель  10/10 210 м 
[St]
-5.8 -6.6 94 -12  1027.6  728  300           
12 25.02.11 100 (В) 13{18}  2000 м  метель  10/10 200 м 
[St]
-5.1 -5.8 95 -12  1027.2  -0.2  728  299           
15 25.02.11 110 (В) 12-18{19}  1500 м  метель  10/10 120 м 
[St]
-5 -5.5 96 -12  1026.6  -0.5  727  299           
18 25.02.11 100 (В) 11{19}  4000 м  метель  10/10 200 м 
[St]
-6.4 -7 96 -13  1027.6  0.7  728  301           
21 25.02.11 110 (В) 11{20}  4000 м  метель  10/10 100 м 
[St]
-7 -7.7 95 -14  1026.8  -0.9  727  301           
00 26.02.11 100 (В) 12  н/о    н/о 
-7.1 -7.7 96 -14  1025.6  -1.1  726  301           
03 26.02.11 100 (В) 13  1200 м  метель  10/10 210 м 
[St]
-7.2 -7.9 95 -15  1025  -0.6  726  301        20  очень
неравномерный
сухой снег
(сугробы, заносы) 
06 26.02.11 100 (В) 12  0700 м  метель  10/10 180 м 
[St]
-6.3 -7 95 -13  1024  -0.6  725  300  -7.4      20  очень
неравномерный
сухой снег
(сугробы, заносы) 
09 26.02.11 110 (В) 13{18}  н/о    н/о 
-5.3 -5.9 96 -12  1022.5  -1.1  724  298           
12 26.02.11 100 (В) 15{21}  0500 м  сильная метель  10/10 100 м 
[St]
-5.3 -5.9 96 -13  1020.9  -1.5  723  298           
15 26.02.11 090 (В) 15{22}  0500 м  сильная метель  10/10 100 м 
[St]
-6.3 -7 95 -14  1021.2  0.1  723  299           
18 26.02.11 100 (В) 14{19}  0400 м  метель  10/10 100 м 
[St]
-8.1 -8.8 95 -16  1022.3  0.6  724  301           
21 26.02.11 090 (В) 15{18}  0500 м  метель  10/10 100 м 
[St]
-9.3 -10.2 93 -18  1022.1  -0.5  723  303           
00 27.02.11 090 (В) 12{18}  0500 м  метель  10/10 100 м 
[St]
-9.5 -10.4 93 -17  1021.9  -0.2  723  303           
03 27.02.11 100 (В) 10  0600 м  снег  10/10 150 м 
[St]
-9.5 -10.4 93 -17  1022.8  0.8  724  303           
06 27.02.11 090 (В) 0800 м  сильная метель{снег}  ?/?  
-9.7 -10.7 92 -16  1024.7  1.7  725  304      0.1     
09 27.02.11 090 (В) 10  0800 м  снег  ?/?  
-7.6 -8.4 94 -14  1025  0.8  726  302           
12 27.02.11 100 (В) 11  1500 м  метель{снег}  10/10 180 м 
[St]
-6.3 -6.9 96 -13  1025.8  726  300           
15 27.02.11 100 (В) 10  1500 м  метель  10/10 210 м 
[St]
-5.6 -6.1 96 -12  1026.7  727  300           
18 27.02.11 100 (В) 10  2000 м  снег  10/10 180 м 
[Ns]
-6.4 -7.1 95 -13  1027.5  0.6  728  301    -5.5  0.4     
21 27.02.11 110 (В) 11  10 км  слаб. снег  10/10 150 м 
[Ns]
-7.1 -7.7 96 -14  1027.6  0.1  728  302           
00 28.02.11 110 (В) 10  10 км  позёмок{снег}  10/10 210 м 
[Ns]
-7.9 -8.7 94 -15  1027.5  -0.3  727  303           
03 28.02.11 110 (В) 10 км  позёмок  10/10 210 м 
[Ns]
-7.1 -7.9 94 -13  1027.7  0.3  728  302        22  очень
неравномерный
сухой снег
(сугробы, заносы) 
06 28.02.11 110 (В) 4000 м  метель  10/10 240 м 
[Ns]
-5.7 -6.4 95 -12  1028.3  0.8  728  300  -8    0.4  22  очень
неравномерный
сухой снег
(сугробы, заносы) 
09 28.02.11 120 (ЮВ) 10 км  позёмок  10/10 270 м 
[Ns]
-4.5 -5.3 94 -10  1028.3  0.3  728  299           
12 28.02.11 110 (В) 10  4000 м  метель  10/10 270 м 
[Ns]
-3.5 -4.2 95 -9  1027.9  -0.2  728  298           
15 28.02.11 110 (В) 4000 м  метель  10/10 150 м 
[Ns]
-3.3 -3.9 96 -9  1028.2  -0.2  729  298           
18 28.02.11 110 (В) 10 км  слаб. снег  10/10 180 м 
[Ns]
-3.7 -4.2 96 -9  1028.2  0.1  728  298    -3.2       
21 28.02.11 110 (В) 2500 м  слаб. снег  10/10 120 м 
[Ns]
-5 -5.5 96 -10  1028.1  -0.3  728  299           
00 01.03.11 110 (В) 3000 м  слаб. снег  10/10 180 м 
[Ns]
-6 -6.6 95 -11  1028.5  0.2  728  301           
03 01.03.11 100 (В) 10 км  слаб. снег  10/10 210 м 
[Ns]
-6.6 -7.2 95 -12  1029.3  0.6  729  302        25  очень
неравномерный
сухой снег
(сугробы, заносы) 
06 01.03.11 100 (В) >10 км  {снег}  9/0 средняя 
[Ac trans]
-6.4 -7 96 -11  1030.1  0.8  729  302  -7.1    0.4  25  очень
неравномерный
сухой снег
(сугробы, заносы) 
09 01.03.11 110 (В) >10 км  позёмок  9/3 300 м средняя 
[Sc|Ac trans]
-4.4 -5.7 91 -9  1030.1  0.3  730  299           
12 01.03.11 100 (В) >10 км    8/4 300 м средняя 
[Sc|Ac trans]
-3.2 -4.5 91 -8  1029.7  0.1  730  298           
15 01.03.11 110 (В) >10 км    10/3 300 м средняя, верхняя 
[Sc|Ac trans|Ci fib]
-4.3 -5.6 91 -9  1030.5  0.5  730  299           
18 01.03.11 120 (ЮВ) >10 км    10/3 300 м средняя 
[Sc|Ac und]
-4.2 -5.2 93 -8  1030.1  -0.3  730  299    -3       
21 01.03.11 120 (ЮВ) >10 км    10/3 600 м средняя 
[Sc|Ac und]
-3.8 -5 91 -7  1029.2  -0.7  729  298           
00 02.03.11 100 (В) 10 км    10/5 360 м средняя 
[Sc|Ac und]
-4.6 -5.8 91 -8  1029  -0.4  729  299           
03 02.03.11 110 (В) 10 км  слаб. снег  10/10 150 м 
[Ns]
-4.4 -4.9 96 -8  1028.6  -0.3  729  299        26  очень
неравномерный
сухой снег
(сугробы, заносы) 
06 02.03.11 100 (В) 4000 м  слаб. снег  10/10 420 м 
[Ns]
-5 -5.5 96 -8  1029.3  0.5  729  300  -6    0.2  26  очень
неравномерный
сухой снег
(сугробы, заносы) 
09 02.03.11 120 (ЮВ) >10 км  в посл. час снег  10/10 300 м 
[Sc]
-2.7 -3.7 93 -6  1028.6  0.5  729  297           
12 02.03.11 090 (В) >10 км  {снег}  10/6 360 м средняя 
[Sc|Ac trans]
-2.3 -3.8 89 -6  1028  -0.6  729  296           
15 02.03.11 090 (В) 2000 м  слаб. ливневой снег  10/6 180 м кучево-дожд., средняя 
[Cb cap|Ac As]
-3.4 -3.8 97 -7  1028.9  0.6  729  298           
18 02.03.11 110 (В) 2500 м  слаб. ливневой снег  10/6 120 м кучево-дожд., средняя 
[Cb cap|Ac As]
-4.6 -5.1 96 -8  1030  0.8  730  300    -1.7  0.8     
21 02.03.11 070 (В) 3000 м  слаб. ливневой снег  10/8 120 м кучево-дожд., средняя 
[Cb calv|Ac und]
-4.8 -5.3 96 -8  1030.4  0.4  730  300           
00 03.03.11 080 (В) 10 км  {ливн. осадки}  10/8 210 м средняя 
[St|Ac und]
-6.2 -7.8 88 -8  1031.4  0.6  730  302           
03 03.03.11 тихо ()   10 км  слаб. снег  10/10 180 м 
[St]
-6.7 -7.8 92 -7  1032.1  0.6  731  303        31  очень
неравномерный
сухой снег
(сугробы, заносы) 
06 03.03.11 тихо ()   10 км  слаб. снег  10/6 330 м средняя 
[Sc|Ac As]
-3.8 -5 91 -4  1032.1  0.6  731  299  -6.8    0.6  31  очень
неравномерный
сухой снег
(сугробы, заносы) 
09 03.03.11 360 (С) >10 км  в посл. час снег  10/10 360 м 
[Sc]
-3.8 -5.1 91 -6  1031.5  -0.6  731  299           
12 03.03.11 270 (З) >10 км  {снег}  10/6 400 м средняя 
[Sc|Ac As]
-3.7 -6 84 -7  1030.6  -0.8  730  299           
15 03.03.11 280 (З) >10 км    6/3 600 м средняя 
[Sc|Ac trans]
-5.2 -7 87 -8  1030.2  -0.7  730  300           
18 03.03.11 290 (З) >10 км    4/3 600 м средняя 
[Sc|Ac trans]
-6.8 -13.2 60 -9  1030.3  -0.2  730  303    -1.7       
21 03.03.11 270 (З) >10 км    6/6 600 м 
[Sc]
-7.9 -10.8 80 -12  1029.9  -0.6  729  303           
00 04.03.11 270 (З) 4000 м  слаб. снег  10/10 600 м 
[Sc]
-8.3 -9.9 88 -13  1028.8  -1.1  728  304           
03 04.03.11 270 (З) 10 км  слаб. снег  10/10 210 м 
[Ns]
-8.9 -10 92 -13  1029.5  -1.1  729  304           
Время (UTC), дата Ветер
(°,м/с) 
Видим.   Явления Облачность Т
(°С)
Тd
(°С)
f(%) Тe
(°С)
Pmin
(гПа)
dP
(гПа)
Po
(мм)
O2
(г/м3)
Тmin Tmax R s Состояние
почвы